Regional Weather Roundup
Issued by NWS

Home | Current Version | Previous Version | Text Only | Print | Product List | Glossary On
Versions: 1 2 3 4 5 6 7 8 9 10 11 12 13 14 15 16 17 18 19 20 21 22 23 24 25 26 27 28 29 30 31 32 33 34 35 36 37 38 39 40 41 42 43 44 45 46 47 48 49 50
000
ASUS43 KMPX 290301
RWRMN
WEATHER ROUNDUP FOR MINNESOTA
NATIONAL WEATHER SERVICE TWIN CITIES/CHANHASSEN MN
1000 PM CDT TUE JUL 28 2015


NOTE: "FAIR" INDICATES FEW OR NO CLOUDS BELOW 12,000 FEET WITH NO
SIGNIFICANT WEATHER AND/OR OBSTRUCTIONS TO VISIBILITY. N/A MEANS
CURRENT SKY AND/OR WEATHER CONDITIONS ARE NOT AVAILABLE.

MNZ060>063-068>070-290400-
   Twin Cities Metro

CITY           SKY/WX    TMP DP  RH WIND       PRES   REMARKS
TWIN CITIES    PTCLDY    76  59  55 W10       29.89R
ST PAUL        CLEAR     76  60  57 W12G20    29.89R
CRYSTAL        CLEAR     75  59  57 W9        29.87R
BLAINE         CLEAR     75  61  60 W13       29.88R
LAKEVILLE      CLEAR     72  63  73 W6        29.91R
EDEN PRAIRIE   CLEAR     74  60  61 W7        29.89R
SOUTH ST PAUL  CLEAR     77  59  53 W9G16     29.90R
LAKE ELMO      FAIR      73  61  64 W9        29.90R
$$
MNZ001>005-007-008-013>017-022>024-027-028-290400-
   Northwest Minnesota

CITY           SKY/WX    TMP DP  RH WIND       PRES   REMARKS
BEMIDJI        PTCLDY    69  51  52 SW15G28   29.74S
HALLOCK        CLOUDY    66  52  59 S22G29    29.49F
ROSEAU         CLOUDY    70  54  56 SW22G33   29.55F
WARROAD        MOCLDY    70  57  64 S13G22    29.56F
THIEF RVR FALL PTCLDY    66  50  55 SW18G25   29.64S
CROOKSTON      MOCLDY    66  52  59 SW24G31   29.65F
FOSSTON        CLEAR     64  52  63 SW17G25   29.71F
DETROIT LAKES  CLEAR     70  50  49 SW20G26   29.81S
MOORHEAD       CLEAR     70  50  49 SW15G26   29.77S
PARK RAPIDS    PTCLDY    70  50  49 SW17      29.79S
MAHNOMEN       FAIR      65  51  59 SW16      29.74F
$$
MNZ006-009>011-018-025>026-290400-
   North Central Minnesota

CITY           SKY/WX    TMP DP  RH WIND       PRES   REMARKS
BAUDETTE       MOCLDY    69  53  56 S15G24    29.62F
FLAG ISLAND    CLOUDY    73  57  56 S18G31    29.53F
INTL FALLS     CLEAR     68  55  63 S6        29.68F
WASKISH        CLEAR     68  55  64 S9        29.68F
BIG FORK       CLEAR     66  55  68 S7        29.74F
LONGVILLE      CLEAR     70  55  60 SW9       29.79S
GRAND RAPIDS   CLEAR     68  55  64 S7        29.79S
CRANE LAKE     PTCLDY    72  61  68 SW6       29.73R
ORR            CLEAR     70  54  56 CALM      29.72S
COOK           CLEAR     72  57  60 SW7       29.77R
WALKER         FAIR      69  53  55 SW9G25    29.77S
$$
MNZ012-019>021-037-290400-
   Northeast Minnesota

CITY           SKY/WX    TMP DP  RH WIND       PRES   REMARKS
DULUTH         MOCLDY    76  67  73 W12       29.80R
ELY            PTCLDY    75  64  69 S10       29.75S
HIBBING        CLEAR     71  57  61 SW8       29.79R
EVELETH        PTCLDY    72  57  60 SW9G26    29.80R
DULUTH HARBOR  CLOUDY    79  72  78 SW8       29.77R
TWO HARBORS    MOCLDY    79  72  78 SW7       29.76S
SILVER BAY     MOCLDY    75  66  73 S7        29.76S
GRAND MARAIS     N/A     63  59  87 CALM      29.74F
G MARAIS ARPRT PTCLDY    68  63  83 S3        29.81S
$$
MNZ029>031-032-039>041-046>048-054>057-064-290400-
   West Central Minnesota

CITY           SKY/WX    TMP DP  RH WIND       PRES   REMARKS
FERGUS FALLS   PTCLDY    66  52  59 SW10      29.84R
WHEATON        CLEAR     66  50  55 W10       29.89S
MORRIS         CLEAR     68  54  60 W12       29.89R
ALEXANDRIA     CLEAR     70  51  51 W16       29.89R
ELBOW LAKE     FAIR      67  53  61 W13       29.87R
WADENA         CLEAR     70  52  52 SW13G20   29.83R
GLENWOOD       CLEAR     70  54  56 W14G21    29.90R
APPLETON       CLEAR     72  54  53 W9        29.90R
BENSON         CLEAR     66  54  63 NW9       29.91R
ORTONVILLE     CLEAR     72  52  49 W8        29.90S
MADISON        CLEAR     64  55  72 W6        29.93R
WILLMAR        FAIR      68  63  83 SW6       29.93R
$$
MNZ033>034-036-042>043-049>051-058-059-290400-
   Central Minnesota

CITY           SKY/WX    TMP DP  RH WIND       PRES   REMARKS
ST CLOUD       CLEAR     67  60  78 SW7       29.87R
SAUK CENTRE    FAIR      66  57  71 W9        29.89R
PAYNESVILLE    CLEAR     64  59  83 S7        29.91R
AITKIN         CLEAR     70  59  68 S7        29.81S
PINE RIVER     CLEAR     66  57  72 SW8       29.84S
BRAINERD       CLEAR     68  57  68 SW9       29.83R
STAPLES        CLEAR     70  50  49 W13G18    29.84R
LONG PRAIRIE   FAIR      68  54  60 SW12      29.88R
LITTLE FALLS   CLEAR     66  57  72 S5        29.87R
LITCHFIELD     CLEAR     70  64  83 CALM      29.91R
BUFFALO        CLEAR     71  60  68 SW3       29.90R
MAPLE LAKE     CLEAR     68  63  83 CALM      29.90R
$$
MNZ037-044-045-052-053-290400-
   East Central Minnesota

CITY           SKY/WX    TMP DP  RH WIND       PRES   REMARKS
PRINCETON      CLEAR     72  59  64 CALM      29.87S
MORA           CLEAR     70  59  68 W6        29.87S
CAMBRIDGE      CLEAR     73  59  60 W5        29.86R
RUSH CITY      CLEAR     72  59  64 W12       29.86R
MOOSE LAKE     CLEAR     72  59  64 W9        29.82R
HINCKLEY       FAIR      72  59  64 W13G22    29.84S
CLOQUET        PTCLDY    73  61  64 W9G21     29.81R
MCGREGOR       CLEAR     70  57  64 SW5       29.83R
$$
MNZ071>073-080-081-089-090-097-098-290400-
   Southwest Minnesota

CITY           SKY/WX    TMP DP  RH WIND       PRES   REMARKS
MONTEVIDEO     CLEAR     70  57  64 NW7       29.94R
GRANITE FALLS  CLEAR     65  60  82 CALM      29.94R
CANBY          CLEAR     68  56  65 W9        29.95R
MARSHALL       CLEAR     68  55  64 W8        29.96R
REDWOOD FALLS  CLEAR     68  61  78 SW7       29.92R
OLIVIA         CLEAR     64  59  82 SW6       29.92R
PIPESTONE      CLEAR     66  57  72 CALM      29.98R
WINDOM         CLEAR     66  61  82 CALM      29.98R
WORTHINGTON    CLEAR     64  55  72 S6        30.01R
JACKSON        CLEAR     66  61  82 SW5       30.00R
SLAYTON        CLEAR     65  59  80 CALM      29.99R
$$
MNZ065>067-074>077-082>085-091>093-290400-
   South Central Minnesota

CITY           SKY/WX    TMP DP  RH WIND       PRES   REMARKS
MANKATO        CLEAR     72  61  68 W8        29.95R
NEW ULM        CLEAR     66  63  88 SW6       29.93R
ST JAMES       CLEAR     70  63  78 SW5       29.98R
FAIRMONT       CLEAR     70  57  64 NW10      29.97R
GLENCOE        CLEAR     70  64  81 SW3       29.91R
FARIBAULT      CLEAR     72  64  78 W6        29.94R
OWATONNA       PTCLDY    73  66  78 W9        29.94R
WASECA         CLEAR     70  64  83 W7        29.96R
ALBERT LEA     MOCLDY    73  72  94 W3        29.95R
$$
MNZ078>079-086>088-094>096-290400-
   Southeast Minnesota

CITY           SKY/WX    TMP DP  RH WIND       PRES   REMARKS
ROCHESTER      CLOUDY    75  72  90 W9        29.93R
RED WING       CLOUDY    79  73  83 W8        29.87R
STANTON        CLEAR     74  63  66 W8        29.90R
DODGE CENTER   CLOUDY    73  72  94 W7        29.93R
WINONA         CLOUDY    79  72  78 W6        29.88S
AUSTIN         MOCLDY    77  72  83 W6        29.94R
PRESTON        CLOUDY    75  71  87 W6        29.94R
$$
ABBREVIATIONS USED IN REMARKS
   TC - TEMPERATURES IN CELSIUS
  WCI - WIND CHILL INDEX
   HX - HEAT INDEX
  VSB - VISIBILITY
$$


USA.gov is the U.S. government's official web portal to all federal, state and local government web resources and services.